Regional Weather Roundup
Issued by NWS Northern Indiana

Home | Current Version | Previous Version | Graphics & Text | Print | Product List | Glossary On
Versions: 1 2 3 4 5 6 7 8 9 10 11 12 13 14 15 16 17 18 19 20 21 22 23 24 25 26 27 28 29 30 31 32 33 34 35 36 37 38 39 40 41 42 43 44 45 46 47 48 49 50
000
ASUS43 KIWX 070010
RWRIWX

KIWX WEATHER ROUNDUP
NATIONAL WEATHER SERVICE NORTHERN INDIANA
700 PM EST TUE DEC 06 2016

NOTE: "FAIR" INDICATES FEW OR NO CLOUDS BELOW 12,000 FEET WITH NO
SIGNIFICANT WEATHER AND/OR OBSTRUCTIONS TO VISIBILITY.

* THESE STATIONS ARE NOT UNDER NWS QUALITY CONTROL. THEY ALSO MAY NOT
  REPORT WEATHER SUCH AS PRECIPITATION OR FOG.

INZ001>027-070100-
NORTHERN INDIANA

CITY           SKY/WX    TMP DP  RH WIND       PRES   REMARKS
GARY*          PTCLDY    34  28  80 W20       29.89  WCI  22
VALPARAISO     PTCLDY    34  29  82 W12       29.87R WCI  25
6HR MIN TEMP:  34; 6HR MAX TEMP:  38;

MICHIGAN CITY* PTCLDY    36  30  80 W12G20    29.86R
LAPORTE*       PTCLDY    36  36 100 W9        29.86R
6HR MIN TEMP:  36; 6HR MAX TEMP:  38;

KNOX*          MOCLDY    34  19  55 W10       29.87R WCI  26
SOUTH BEND     CLOUDY    36  32  85 W10       29.84R
6HR MIN TEMP:  35; 6HR MAX TEMP:  40;

ELKHART*       MOCLDY    37  32  81 W10       29.82R
GOSHEN         CLOUDY    36  31  82 W12       29.83R HAZE
MONTICELLO*    CLOUDY    35  29  79 W10G17    29.90R WCI  27
6HR MIN TEMP:  33; 6HR MAX TEMP:  39;

LOGANSPORT*    CLOUDY    34  32  93 W12G18    29.90R WCI  25
ROCHESTER*     CLOUDY    36  34  93 W12       29.87R
WARSAW*        PTCLDY    34  30  86 W12       29.84R HAZE    WCI  25
ANGOLA*        MOCLDY    37  34  87 VRB7      29.78S
FORT WAYNE     CLOUDY    37  32  82 W14G26    29.83R
6HR MIN TEMP:  35; 6HR MAX TEMP:  39;

HUNTINGTON*    MOCLDY    34  32  91 W8        29.85R WCI  28
6HR MIN TEMP:  34; 6HR MAX TEMP:  39;

MARION*        CLOUDY    34  32  94 W15       29.89R FOG     WCI  24
6HR MIN TEMP:  25; 6HR MAX TEMP:  89;


$$
INZ028>050-070100-
CENTRAL INDIANA

CITY           SKY/WX    TMP DP  RH WIND       PRES   REMARKS
LAFAYETTE      CLOUDY    34  31  88 W9        29.93R WCI  27
6HR MIN TEMP:  34; 6HR MAX TEMP:  40;

KOKOMO*        CLOUDY    36  32  87 W14       29.90R
6HR MIN TEMP:  34; 6HR MAX TEMP:  40;

MUNCIE*        CLOUDY    36  33  89 W13G26    29.88R
6HR MIN TEMP:  36; 6HR MAX TEMP:  41;

INDIANAPOLIS   CLOUDY    37  32  82 W13       29.93R
6HR MIN TEMP:  36; 6HR MAX TEMP:  43;


$$
MIZ043>046-050>051-056>058-064>065-071>073-077>080-070100-
SOUTHWEST LOWER MICHIGAN

CITY           SKY/WX    TMP DP  RH WIND       PRES   REMARKS
BATTLE CREEK   CLOUDY    38  34  85 SW13      29.77R
6HR MIN TEMP:  38; 6HR MAX TEMP:  42;

BENTON HARBOR  MOCLDY    38  29  70 W16       29.82R
6HR MIN TEMP:  38; 6HR MAX TEMP:  42;

COLDWATER*     CLOUDY    38  33  84 W9        29.78R
6HR MIN TEMP:  36; 6HR MAX TEMP:  45;

HILLSDALE*     CLOUDY    36  32  87 W17G24    29.76R
HOLLAND        MOCLDY    39  32  76 W16       29.78R
6HR MIN TEMP:  37; 6HR MAX TEMP:  41;

GRAND RAPIDS   MOCLDY    37  31  78 SW9       29.75R
6HR MIN TEMP:  35; 6HR MAX TEMP:  39;

KALAMAZOO      PTCLDY    37  31  78 W7        29.79R
6HR MIN TEMP:  37; 6HR MAX TEMP:  42;

STURGIS*       CLOUDY    37  33  86 W9        29.79S
6HR MIN TEMP:  37; 6HR MAX TEMP:  42;

THREE RIVERS*  FAIR      37  33  85 W10       29.81R
6HR MIN TEMP:  37; 6HR MAX TEMP:  42;


$$
OHZ001>008-015>018-024>025-070100-
NORTHWEST OHIO

CITY           SKY/WX    TMP DP  RH WIND       PRES   REMARKS
WAUSEON*       CLOUDY    37  36  93 W9        29.78R
DEFIANCE       CLOUDY    39  33  79 W7        29.80R
6HR MIN TEMP:  36; 6HR MAX TEMP:  39; 6HR PCP:  0.02;

FINDLAY        CLOUDY    37  33  85 W16G26    29.79R FOG
6HR MIN TEMP:  36; 6HR MAX TEMP:  38; 6HR PCP:  0.07;

TOLEDO EXPRESS CLOUDY    37  37 100 W14       29.77R FOG
6HR MIN TEMP:  36; 6HR MAX TEMP:  37; 6HR PCP:  0.17;

TOLEDO METCALF CLOUDY    38  37  97 SW10      29.77R FOG
6HR MIN TEMP:  38; 6HR MAX TEMP:  39; 6HR PCP:  0.12;

LIMA           CLOUDY    36  35  96 W14G25    29.81R
6HR MIN TEMP:  34; 6HR MAX TEMP:  36; 6HR PCP:  0.02;


$$
AND FOR LAKE MICHIGAN COASTAL AND OPEN LAKE BUOY OBSERVATIONS

STATION/POSITION TEMP    WIND        PRES    VSBY  WAVE
                 AIR SEA DIR/SP/G                  HT/PER
                 (F)     (DEG/KT/KT) (MB)    (MI)  (FT/S)
CALUMET HARBOR    33     250/ 10/ 16 1011.2R
MICHIGAN CITY     37     230/ 24/ 26   N/A
BURNS HARBOR      37     260/ 19/ 24 1011.9R
SAINT JOSEPH      40     250/ 17/ 22 1010.8

$$
&&




USA.gov is the U.S. government's official web portal to all federal, state and local government web resources and services.